TimeHST,TemperatureF,Dew PointF,Humidity,Sea Level PressureIn,VisibilityMPH,Wind Direction,Wind SpeedMPH,Gust SpeedMPH,PrecipitationIn,Events,Conditions,WindDirDegrees,DateUTC
12:54 AM,64.0,63.0,96,30.01,10.0,Calm,Calm,-,N/A,,Clear,0,2012-11-02 10:54:00
1:54 AM,63.0,61.0,93,30.00,10.0,South,3.5,-,N/A,,Clear,190,2012-11-02 11:54:00
2:54 AM,61.0,61.0,100,29.99,10.0,SSE,4.6,-,N/A,,Clear,160,2012-11-02 12:54:00
3:54 AM,62.1,61.0,96,29.99,10.0,South,3.5,-,N/A,,Clear,170,2012-11-02 13:54:00
4:54 AM,63.0,62.1,97,29.98,10.0,SSE,5.8,-,N/A,,Clear,150,2012-11-02 14:54:00
5:54 AM,63.0,62.1,97,29.99,10.0,SE,5.8,-,N/A,,Clear,140,2012-11-02 15:54:00
6:54 AM,64.0,63.0,96,29.99,10.0,SE,5.8,-,N/A,,Clear,140,2012-11-02 16:54:00
7:54 AM,72.0,66.0,81,30.00,10.0,SE,3.5,-,N/A,,Partly Cloudy,130,2012-11-02 17:54:00
8:54 AM,79.0,68.0,69,30.01,10.0,NNE,4.6,-,0.00,,Clear,20,2012-11-02 18:54:00
9:54 AM,81.0,68.0,65,30.01,10.0,NNW,5.8,-,N/A,,Partly Cloudy,340,2012-11-02 19:54:00
10:54 AM,84.0,64.9,53,29.98,10.0,NNE,13.8,-,N/A,,Partly Cloudy,20,2012-11-02 20:54:00
11:54 AM,84.9,69.1,59,29.95,10.0,NNE,13.8,20.7,N/A,,Partly Cloudy,30,2012-11-02 21:54:00
12:54 PM,80.1,71.1,74,29.92,10.0,NE,17.3,21.9,N/A,,Scattered Clouds,40,2012-11-02 22:54:00
1:54 PM,81.0,70.0,69,29.91,10.0,NE,15.0,21.9,N/A,,Scattered Clouds,40,2012-11-02 23:54:00
2:54 PM,81.0,69.1,67,29.89,10.0,NE,10.4,-,N/A,,Scattered Clouds,40,2012-11-03 00:54:00
3:54 PM,81.0,68.0,65,29.88,10.0,NW,6.9,-,0.00,Rain,Light Rain,310,2012-11-03 01:54:00
4:54 PM,80.1,69.1,69,29.89,10.0,West,6.9,-,0.00,,Partly Cloudy,280,2012-11-03 02:54:00
5:54 PM,77.0,69.1,76,29.91,10.0,ENE,4.6,-,N/A,,Partly Cloudy,70,2012-11-03 03:54:00
6:54 PM,75.9,68.0,76,29.94,10.0,Calm,Calm,-,N/A,,Partly Cloudy,0,2012-11-03 04:54:00
7:54 PM,72.0,68.0,87,29.97,10.0,Calm,Calm,-,N/A,,Scattered Clouds,0,2012-11-03 05:54:00
8:54 PM,70.0,68.0,93,29.99,10.0,WSW,3.5,-,N/A,,Clear,250,2012-11-03 06:54:00
9:54 PM,69.1,66.9,93,30.00,10.0,Calm,Calm,-,N/A,,Partly Cloudy,0,2012-11-03 07:54:00
10:54 PM,68.0,66.9,96,30.00,10.0,SE,4.6,-,N/A,,Clear,140,2012-11-03 08:54:00
11:54 PM,66.9,66.0,97,29.99,10.0,SSE,4.6,-,N/A,,Clear,160,2012-11-03 09:54:00